DW2516 Weather Reports


time (UTC)temp
F
wind
direction
speed
knots
gust
knots
rain 1hr
in
rain 24hr
in
rain mn
in
humidity
%
barometer
mb
20260507140027 70 0.0 0.0 0.00 0.00 0.00 48 1010.4
20260507134511 69 0.0 0.0 0.00 0.00 0.00 48 1010.4
20260507133007 69 0.0 0.0 0.00 0.00 0.00 50 1010.6
20260507131504 68 0.0 0.0 0.00 0.00 0.00 50 1010.8
20260507130002 67 0.0 0.0 0.00 0.00 0.00 50 1010.7
20260507124603 66 0.0 0.0 0.00 0.00 0.00 55 1010.7
20260507123103 65 0.0 0.0 0.00 0.00 0.00 55 1010.7
20260507121557 65 0.0 0.0 0.00 0.00 0.00 55 1010.9
20260507120055 65 0.0 0.0 0.00 0.00 0.00 55 1011.0
20260507114554 65 0.0 0.0 0.00 0.00 0.00 56 1010.9
20260507113126 65 0.0 0.0 0.00 0.00 0.00 56 1010.9
20260507111550 64 0.0 0.0 0.00 0.00 0.00 57 1011.0
20260507110049 63 0.0 0.0 0.00 0.00 0.00 57 1011.2
20260507104559 64 0.0 0.0 0.00 0.00 0.00 57 1011.4
20260507103048 63 0.0 0.0 0.00 0.00 0.00 58 1011.3
20260507101540 63 0.0 0.0 0.00 0.00 0.00 59 1011.2
20260507100046 63 0.0 0.0 0.00 0.00 0.00 62 1011.3
20260507094538 61 0.0 0.0 0.00 0.00 0.00 62 1011.4
20260507093035 61 0.0 0.0 0.00 0.00 0.00 62 1011.3
20260507091537 61 0.0 0.0 0.00 0.00 0.00 61 1011.2
20260507090029 61 0.0 0.0 0.00 0.00 0.00 61 1011.0
20260507084544 61 0.0 0.0 0.00 0.00 0.00 62 1010.9
20260507083027 61 0.0 0.0 0.00 0.00 0.00 62 1010.5
20260507081524 61 0.0 0.0 0.00 0.00 0.00 63 1010.4
20260507080055 61 0.0 0.0 0.00 0.00 0.00 62 1010.3
20260507074553 61 0.0 0.0 0.00 0.00 0.00 63 1010.3
20260507073053 60 0.0 0.0 0.00 0.00 0.00 64 1010.1
20260507071548 60 0.0 0.0 0.00 0.00 0.00 65 1010.0
20260507070059 59 0.0 0.0 0.00 0.00 0.00 66 1009.8
20260507064547 59 0.0 0.0 0.00 0.00 0.00 66 1009.9
20260507063041 59 0.0 0.0 0.00 0.00 0.00 67 1009.8
20260507061540 58 0.0 0.0 0.00 0.00 0.00 70 1009.6
20260507060039 58 0.0 0.0 0.00 0.00 0.00 71 1009.4
20260507054538 57 0.0 0.0 0.00 0.00 0.00 73 1009.4
20260507053029 57 0.0 0.0 0.00 0.00 0.00 77 1009.2
20260507051528 57 0.0 0.0 0.00 0.00 0.00 78 1009.0
20260507050047 56 0.0 0.0 0.00 0.00 0.00 79 1008.8
20260507044524 56 0.0 0.0 0.00 0.00 0.00 79 1008.5
20260507043019 56 0.0 0.0 0.00 0.00 0.00 79 1008.2
20260507041516 56 0.0 0.0 0.00 0.00 0.00 80 1008.0
20260507040015 56 0.0 0.0 0.00 0.00 0.00 80 1007.9
20260507034607 56 0.0 0.0 0.00 0.00 0.00 79 1007.9
20260507033100 57 0.0 0.0 0.00 0.00 0.00 78 1007.7
20260507031530 57 0.0 0.0 0.00 0.00 0.00 78 1007.7
20260507030022 57 0.0 0.0 0.00 0.00 0.00 77 1007.4
20260507024519 58 0.0 0.0 0.00 0.00 0.00 76 1007.2
20260507023016 58 0.0 0.0 0.00 0.00 0.00 74 1007.4
20260507021524 59 0.0 0.0 0.00 0.00 0.00 74 1007.3
20260507020021 59 0.0 0.0 0.00 0.00 0.00 74 1007.5
20260507014519 59 0.0 0.0 0.00 0.00 0.00 74 1007.1
20260507013011 60 0.0 0.0 0.00 0.00 0.00 73 1007.0
20260507011516 59 0.0 0.0 0.00 0.00 0.00 75 1007.1
20260507010021 59 0.0 0.0 0.00 0.00 0.00 76 1006.9
20260507004507 59 0.0 0.0 0.00 0.00 0.00 76 1006.8
20260507003005 59 0.0 0.0 0.00 0.00 0.00 76 1006.8
20260507001504 60 0.0 0.0 0.00 0.00 0.00 75 1006.8
20260507000003 60 0.0 0.0 0.00 0.00 0.00 75 1006.6
20260506234626 60 0.0 0.0 0.00 0.00 0.00 74 1006.6
20260506233057 60 0.0 0.0 0.00 0.00 0.00 74 1006.4
20260506231546 61 0.0 0.0 0.00 0.00 0.00 73 1006.0
20260506230044 61 0.0 0.0 0.00 0.00 0.00 73 1005.9
20260506224545 61 0.0 0.0 0.00 0.00 0.00 72 1005.7
20260506223029 62 0.0 0.0 0.00 0.00 0.00 72 1005.5
20260506221527 62 0.0 0.0 0.00 0.00 0.00 72 1005.5
20260506220030 62 0.0 0.0 0.00 0.00 0.00 72 1005.2
20260506214523 62 0.0 0.0 0.00 0.00 0.00 72 1005.2
20260506213028 62 0.0 0.0 0.00 0.00 0.00 71 1005.1
20260506211524 63 0.0 0.0 0.00 0.00 0.00 71 1005.0
20260506210008 63 0.0 0.0 0.00 0.00 0.00 70 1005.1
20260506204509 63 0.0 0.0 0.00 0.00 0.00 69 1004.9
20260506203019 64 0.0 0.0 0.00 0.00 0.00 68 1004.8
20260506201509 64 0.0 0.0 0.00 0.00 0.00 67 1004.8
20260506200005 64 0.0 0.0 0.00 0.00 0.00 67 1004.8
20260506194507 65 0.0 0.0 0.00 0.00 0.00 66 1004.6
20260506193003 65 0.0 0.0 0.00 0.00 0.00 65 1004.5
20260506191506 65 0.0 0.0 0.00 0.00 0.00 64 1004.4
20260506190006 66 0.0 0.0 0.00 0.00 0.00 63 1004.3
20260506184605 66 0.0 0.0 0.00 0.00 0.00 63 1004.0
20260506183104 66 0.0 0.0 0.00 0.00 0.00 62 1003.7
20260506181600 67 0.0 0.0 0.00 0.00 0.00 61 1003.5
20260506180056 67 0.0 0.0 0.00 0.00 0.00 60 1003.8
20260506174601 68 0.0 0.0 0.00 0.00 0.00 59 1003.7
20260506173108 68 0.0 0.0 0.00 0.00 0.00 58 1003.7
20260506171559 69 0.0 0.0 0.00 0.00 0.00 57 1003.5
20260506170052 69 0.0 0.0 0.00 0.00 0.00 56 1003.4
20260506164556 70 0.0 0.0 0.00 0.00 0.00 54 1003.7
20260506163054 71 0.0 0.0 0.00 0.00 0.00 52 1003.7
20260506161602 72 0.0 0.0 0.00 0.00 0.00 51 1003.6
20260506160049 73 0.0 0.0 0.00 0.00 0.00 50 1003.8
20260506154547 73 0.0 0.0 0.00 0.00 0.00 51 1003.8
20260506153044 73 0.0 0.0 0.00 0.00 0.00 50 1004.0
20260506151558 73 0.0 0.0 0.00 0.00 0.00 50 1004.0
20260506150038 74 0.0 0.0 0.00 0.00 0.00 49 1003.9
20260506144537 74 0.0 0.0 0.00 0.00 0.00 49 1004.1
20260506143045 74 0.0 0.0 0.00 0.00 0.00 50 1004.1
20260506141535 75 0.0 0.0 0.00 0.00 0.00 49 1004.4